Find Local Weather

World > North America > United States > New Hampshire

Portsmouth, New Hampshire Regional Weather

Lat: 43.07N, Lon: 70.76W
Wx Zone: NHZ014
Feedback
Expires:201806201700;;836217
ASUS41 KBOX 201610
RWRBOX

REGIONAL WEATHER ROUNDUP
NATIONAL WEATHER SERVICE BOSTON/NORTON MA
1200 PM EDT WED JUN 20 2018

NOTE:  "FAIR" INDICATES FEW OR NO CLOUDS BELOW 12,000 FEET WITH NO 
SIGNIFICANT WEATHER AND/OR OBSTRUCTIONS TO VISIBILITY.


MEZ002-015-021-024-NHZ003-005-008-011-012-014-VTZ005-008-201700-
NORTHERN NEW ENGLAND
  
CITY           SKY/WX    TMP DP  RH WIND       PRES   REMARKS
PORTLAND ME    PTSUNNY   77  48  35 SW9       29.82F                  
BANGOR ME      FAIR      77  48  35 SW9G17    29.78F                  
CONCORD NH     FAIR      79  51  37 SW8       29.84F                  
MANCHESTER NH  PTSUNNY   78  47  33 SW9       29.83F                  
NASHUA NH      FAIR      76  52  43 VRB6      29.85F                  
PORTSMOUTH NH  PTSUNNY   79  46  30 SW8       29.82F                  
JAFFREY NH     FAIR      74  48  39 SW8       29.89F                  
KEENE NH       FAIR      77  49  37 VRB5      29.87F                  
BURLINGTON VT  PTSUNNY   75  49  39 S7        29.84F                  
MT. WASHINGTON PTSUNNY   48  34  57 W33G39      N/A                   
$$


SKY/WX - Weather  TMP - Temperature  DP - Dewpoint  RH - Relative Humidity
WIND - Wind Direction/Speed PRES - Barometric Pressure